This is the latest recevied weather packets stored in our database for station/object RN1M-13. If no packets are shown the sender has not sent any weather packets the latest 10 day(s).
| Time | Temp. | Humidity | Pressure | Rain* | Wind** | Luminosity | Snow |
|---|---|---|---|---|---|---|---|
| 1777601905 | 6.11° C | 100% | 1008.4 hPa | - | - | - | - |
| 1777601007 | 5.56° C | 100% | 1009.4 hPa | - | - | - | - |
| 1777585714 | 6.67° C | 100% | 1013.5 hPa | - | - | - | - |
| 1777584814 | 6.67° C | 100% | 1013.2 hPa | - | - | - | - |
| 1777583914 | 6.67° C | 100% | 1013.2 hPa | - | - | - | - |
| 1777583014 | 6.11° C | 100% | 1013.3 hPa | - | - | - | - |
| 1777573120 | 6.67° C | 100% | 1014.4 hPa | - | - | - | - |
| 1777571320 | 6.67° C | 100% | 1015.6 hPa | - | - | - | - |
| 1777567727 | 5.56° C | 100% | 1017.2 hPa | - | - | - | - |
| 1777566827 | 5.56° C | 100% | 1017.5 hPa | - | - | - | - |
| 1777565927 | 6.11° C | 100% | 1017.4 hPa | - | - | - | - |
| 1777563226 | 6.11° C | 100% | 1017.7 hPa | - | - | - | - |
| 1777561426 | 6.11° C | 100% | 1017.9 hPa | - | - | - | - |
| 1777555135 | 6.11° C | 100% | 1018.7 hPa | - | - | - | - |
| 1777554235 | 6.11° C | 100% | 1019 hPa | - | - | - | - |
| 1777553335 | 6.11° C | 100% | 1019.2 hPa | - | - | - | - |
| 1777552435 | 6.11° C | 100% | 1019.4 hPa | - | - | - | - |
| 1777551535 | 6.11° C | 100% | 1019.7 hPa | - | - | - | - |
| 1777550635 | 6.67° C | 100% | 1019.6 hPa | - | - | - | - |
| 1777547934 | 6.67° C | 100% | 1019.6 hPa | - | - | - | - |
| 1777545242 | 7.78° C | 100% | 1019.5 hPa | - | - | - | - |
| 1777544342 | 7.22° C | 100% | 1019.7 hPa | - | - | - | - |
| 1777542542 | 7.22° C | 100% | 1019.8 hPa | - | - | - | - |
| 1777541642 | 7.22° C | 100% | 1019.9 hPa | - | - | - | - |
| 1777540742 | 7.22° C | 100% | 1020 hPa | - | - | - | - |
* Rain since midnight (hover to see other rain measurements)
** Current wind speed in m/s (hover to see current wind gust speed)